OAL337 LGAV-LGKC

Flight info

Callsign OAL337
Flight time 0h 33m
Altitude 18000
Route DDM B1 IXIMA
Aircraft AT76/M-SDFGIRY/S

Departure

Time 2026-05-04 20:56
Airport Athens Eleftherios Venizelos International Airport (LGAV)

Arrival

Time 2026-05-04 21:30
Airport Kithira Airport (LGKC)
Time Latitude Longitude Altitude Speed Heading
2026-05-04 20:37 37.94334 23.95596 299 ft 0 kts 217°
2026-05-04 20:46 37.94325 23.95588 297 ft 3 kts 217°
2026-05-04 20:47 37.94292 23.95569 299 ft 2 kts 159°
2026-05-04 20:47 37.94275 23.95594 299 ft 2 kts 127°
2026-05-04 20:47 37.94232 23.95658 296 ft 9 kts 146°
2026-05-04 20:47 37.94180 23.95639 300 ft 8 kts 216°
2026-05-04 20:48 37.94124 23.95605 295 ft 11 kts 183°
2026-05-04 20:48 37.94046 23.95649 294 ft 14 kts 180°
2026-05-04 20:48 37.93977 23.95592 296 ft 11 kts 216°
2026-05-04 20:48 37.93916 23.95533 295 ft 11 kts 218°
2026-05-04 20:49 37.93856 23.95476 295 ft 11 kts 216°
2026-05-04 20:49 37.93798 23.95421 296 ft 10 kts 218°
2026-05-04 20:49 37.93743 23.95366 297 ft 10 kts 219°
2026-05-04 20:49 37.93689 23.95317 294 ft 9 kts 215°
2026-05-04 20:50 37.93637 23.95268 297 ft 9 kts 218°
2026-05-04 20:50 37.93585 23.95220 294 ft 11 kts 217°
2026-05-04 20:50 37.93503 23.95142 296 ft 14 kts 217°
2026-05-04 20:50 37.93433 23.95075 297 ft 12 kts 216°
2026-05-04 20:51 37.93373 23.95017 297 ft 10 kts 217°
2026-05-04 20:51 37.93319 23.94968 297 ft 9 kts 216°
2026-05-04 20:51 37.93270 23.94921 296 ft 9 kts 218°
2026-05-04 20:51 37.93211 23.94864 298 ft 12 kts 217°
2026-05-04 20:52 37.93141 23.94796 297 ft 14 kts 219°
2026-05-04 20:52 37.93054 23.94714 297 ft 20 kts 217°
2026-05-04 20:52 37.92983 23.94646 297 ft 6 kts 216°
2026-05-04 20:52 37.92915 23.94583 299 ft 15 kts 217°
2026-05-04 20:53 37.92843 23.94513 298 ft 18 kts 218°
2026-05-04 20:53 37.92723 23.94401 299 ft 17 kts 214°
2026-05-04 20:53 37.92639 23.94321 301 ft 14 kts 217°
2026-05-04 20:53 37.92573 23.94285 300 ft 9 kts 168°
2026-05-04 20:54 37.92536 23.94331 304 ft 7 kts 130°
2026-05-04 20:54 37.92530 23.94340 302 ft 0 kts 130°
2026-05-04 20:55 37.92493 23.94408 305 ft 8 kts 110°
2026-05-04 20:55 37.92515 23.94480 305 ft 10 kts 37°
2026-05-04 20:55 37.92733 23.94688 299 ft 69 kts 37°
2026-05-04 20:56 37.93285 23.95216 293 ft 126 kts 35°
2026-05-04 20:56 37.94056 23.95936 582 ft 144 kts 34°
2026-05-04 20:56 37.94864 23.96679 1199 ft 144 kts 34°
2026-05-04 20:56 37.95695 23.97409 1821 ft 146 kts 33°
2026-05-04 20:57 37.96618 23.97833 2416 ft 147 kts 353°
2026-05-04 20:57 37.97417 23.97065 2925 ft 155 kts 296°
2026-05-04 20:57 37.97479 23.95746 3494 ft 153 kts 257°
2026-05-04 20:57 37.96871 23.94630 3831 ft 159 kts 220°
2026-05-04 20:58 37.95967 23.93808 4114 ft 163 kts 217°
2026-05-04 20:58 37.94978 23.93077 4432 ft 164 kts 208°
2026-05-04 20:58 37.93958 23.92403 4695 ft 170 kts 210°
2026-05-04 20:58 37.92839 23.91643 4712 ft 192 kts 211°
2026-05-04 20:59 37.91691 23.90692 4742 ft 209 kts 218°
2026-05-04 20:59 37.90543 23.89456 4731 ft 223 kts 226°
2026-05-04 20:59 37.89473 23.87985 4858 ft 228 kts 232°
2026-05-04 20:59 37.88483 23.86406 5097 ft 226 kts 235°
2026-05-04 21:00 37.87549 23.84851 5404 ft 224 kts 236°
2026-05-04 21:00 37.86581 23.83249 5509 ft 230 kts 234°
2026-05-04 21:00 37.85603 23.81670 5675 ft 232 kts 234°
2026-05-04 21:00 37.84601 23.80064 5853 ft 233 kts 234°
2026-05-04 21:01 37.83594 23.78453 6103 ft 229 kts 234°
2026-05-04 21:01 37.82636 23.76936 6667 ft 213 kts 234°
2026-05-04 21:01 37.81744 23.75528 7190 ft 198 kts 235°
2026-05-04 21:01 37.80913 23.74217 7733 ft 183 kts 236°
2026-05-04 21:02 37.80151 23.73019 8271 ft 167 kts 236°
2026-05-04 21:02 37.79432 23.71878 8557 ft 169 kts 238°
2026-05-04 21:02 37.78707 23.70675 8704 ft 179 kts 238°
2026-05-04 21:02 37.77935 23.69387 8872 ft 188 kts 238°
2026-05-04 21:03 37.77123 23.68035 9030 ft 197 kts 237°
2026-05-04 21:03 37.76263 23.66641 9195 ft 205 kts 237°
2026-05-04 21:03 37.75360 23.65202 9349 ft 211 kts 236°
2026-05-04 21:03 37.74432 23.63732 9510 ft 217 kts 236°
2026-05-04 21:04 37.73494 23.62247 9664 ft 221 kts 236°
2026-05-04 21:04 37.72523 23.60714 9826 ft 225 kts 236°
2026-05-04 21:04 37.71531 23.59166 9989 ft 228 kts 236°
2026-05-04 21:04 37.70521 23.57605 10137 ft 230 kts 235°
2026-05-04 21:05 37.69512 23.56031 10277 ft 232 kts 236°
2026-05-04 21:05 37.68503 23.54440 10416 ft 233 kts 236°
2026-05-04 21:05 37.67500 23.52856 10560 ft 234 kts 235°
2026-05-04 21:05 37.66485 23.51249 10700 ft 235 kts 235°
2026-05-04 21:06 37.65462 23.49633 10852 ft 235 kts 235°
2026-05-04 21:06 37.64437 23.48013 10995 ft 236 kts 235°
2026-05-04 21:06 37.63411 23.46392 11141 ft 236 kts 234°
2026-05-04 21:06 37.62383 23.44768 11287 ft 236 kts 234°
2026-05-04 21:07 37.61356 23.43149 11437 ft 236 kts 234°
2026-05-04 21:07 37.60327 23.41528 11582 ft 236 kts 234°
2026-05-04 21:07 37.59300 23.39907 11737 ft 236 kts 234°
2026-05-04 21:07 37.58284 23.38302 11897 ft 236 kts 234°
2026-05-04 21:08 37.57257 23.36687 12080 ft 235 kts 234°
2026-05-04 21:08 37.56236 23.35080 12252 ft 234 kts 233°
2026-05-04 21:08 37.55219 23.33481 12425 ft 233 kts 233°
2026-05-04 21:08 37.54207 23.31887 12610 ft 232 kts 233°
2026-05-04 21:09 37.53195 23.30299 12792 ft 231 kts 233°
2026-05-04 21:09 37.52190 23.28716 12980 ft 231 kts 233°
2026-05-04 21:09 37.51184 23.27138 13158 ft 231 kts 233°
2026-05-04 21:09 37.50516 23.26093 13283 ft 230 kts 233°
2026-05-04 21:10 37.49188 23.24012 13518 ft 230 kts 232°
2026-05-04 21:10 37.48027 23.22662 13706 ft 229 kts 205°
2026-05-04 21:10 37.46492 23.22224 13892 ft 227 kts 185°
2026-05-04 21:10 37.45426 23.22197 14007 ft 226 kts 178°
2026-05-04 21:11 37.43878 23.22408 14169 ft 226 kts 171°
2026-05-04 21:11 37.42325 23.22771 14295 ft 228 kts 168°
2026-05-04 21:11 37.40763 23.23169 14409 ft 229 kts 168°
2026-05-04 21:11 37.39191 23.23561 14532 ft 231 kts 169°
2026-05-04 21:12 37.37602 23.23917 14648 ft 232 kts 170°
2026-05-04 21:12 37.36005 23.24255 14772 ft 233 kts 171°
2026-05-04 21:12 37.34402 23.24593 14896 ft 234 kts 170°
2026-05-04 21:12 37.32816 23.24928 15012 ft 234 kts 171°
2026-05-04 21:13 37.31208 23.25269 15139 ft 235 kts 171°
2026-05-04 21:13 37.29613 23.25607 15253 ft 235 kts 171°
2026-05-04 21:13 37.27993 23.25950 15376 ft 236 kts 171°
2026-05-04 21:13 37.26370 23.26293 15499 ft 236 kts 171°
2026-05-04 21:14 37.24745 23.26633 15622 ft 236 kts 171°
2026-05-04 21:14 37.23121 23.26974 15745 ft 237 kts 171°
2026-05-04 21:14 37.21496 23.27318 15873 ft 237 kts 171°
2026-05-04 21:14 37.19884 23.27656 15992 ft 237 kts 171°
2026-05-04 21:15 37.18254 23.28001 16122 ft 237 kts 171°
2026-05-04 21:15 37.16624 23.28346 16247 ft 238 kts 171°
2026-05-04 21:15 37.14992 23.28693 16371 ft 238 kts 171°
2026-05-04 21:15 37.13360 23.29037 16507 ft 238 kts 172°
2026-05-04 21:16 37.11720 23.29371 16626 ft 238 kts 172°
2026-05-04 21:16 37.10081 23.29712 16754 ft 239 kts 172°
2026-05-04 21:16 37.08441 23.30055 16882 ft 239 kts 172°
2026-05-04 21:16 37.06799 23.30400 17007 ft 239 kts 172°
2026-05-04 21:17 37.05158 23.30740 17139 ft 239 kts 172°
2026-05-04 21:17 37.03532 23.31079 17268 ft 239 kts 172°
2026-05-04 21:17 37.01885 23.31425 17391 ft 240 kts 172°
2026-05-04 21:17 37.00239 23.31769 17532 ft 240 kts 172°
2026-05-04 21:18 36.98589 23.32113 17656 ft 240 kts 172°
2026-05-04 21:18 36.96953 23.32455 17762 ft 242 kts 172°
2026-05-04 21:18 36.95287 23.32803 17866 ft 243 kts 172°
2026-05-04 21:18 36.93614 23.33153 17976 ft 244 kts 172°
2026-05-04 21:19 36.91936 23.33503 18063 ft 246 kts 172°
2026-05-04 21:19 36.90237 23.33859 18098 ft 249 kts 172°
2026-05-04 21:19 36.88508 23.34221 18113 ft 254 kts 173°
2026-05-04 21:19 36.86750 23.34587 18131 ft 258 kts 172°
2026-05-04 21:20 36.84962 23.34960 18131 ft 262 kts 173°
2026-05-04 21:20 36.83160 23.35332 17904 ft 274 kts 173°
2026-05-04 21:20 36.81240 23.35379 17517 ft 280 kts 196°
2026-05-04 21:20 36.79362 23.34603 17112 ft 289 kts 208°
2026-05-04 21:21 36.77560 23.33435 16713 ft 292 kts 214°
2026-05-04 21:21 36.75795 23.32178 16322 ft 291 kts 214°
2026-05-04 21:21 36.74022 23.30955 15925 ft 291 kts 212°
2026-05-04 21:21 36.72218 23.29790 15539 ft 291 kts 211°
2026-05-04 21:22 36.70410 23.28647 15156 ft 290 kts 211°
2026-05-04 21:22 36.68630 23.27507 14786 ft 281 kts 211°
2026-05-04 21:22 36.66902 23.26403 14427 ft 277 kts 210°
2026-05-04 21:22 36.65200 23.25315 14076 ft 274 kts 210°
2026-05-04 21:23 36.63513 23.24238 13706 ft 272 kts 210°
2026-05-04 21:23 36.61860 23.23181 13326 ft 270 kts 210°
2026-05-04 21:23 36.60179 23.22103 12811 ft 273 kts 210°
2026-05-04 21:23 36.58483 23.21010 12169 ft 274 kts 210°
2026-05-04 21:24 36.56785 23.19932 11544 ft 274 kts 210°
2026-05-04 21:24 36.55082 23.18860 10934 ft 272 kts 209°
2026-05-04 21:24 36.53419 23.17815 10346 ft 269 kts 209°
2026-05-04 21:24 36.51752 23.16765 9731 ft 267 kts 209°
2026-05-04 21:25 36.50097 23.15727 9096 ft 265 kts 209°
2026-05-04 21:25 36.48454 23.14694 8481 ft 263 kts 209°
2026-05-04 21:25 36.46871 23.13696 7902 ft 247 kts 209°
2026-05-04 21:25 36.45370 23.12760 7351 ft 235 kts 209°
2026-05-04 21:26 36.43931 23.11872 6807 ft 226 kts 208°
2026-05-04 21:26 36.42543 23.11015 6300 ft 219 kts 209°
2026-05-04 21:26 36.41213 23.10189 5814 ft 213 kts 209°
2026-05-04 21:26 36.39919 23.09378 5363 ft 202 kts 209°
2026-05-04 21:27 36.38695 23.08611 4926 ft 193 kts 209°
2026-05-04 21:27 36.37520 23.07873 4488 ft 185 kts 208°
2026-05-04 21:27 36.36384 23.07161 4071 ft 180 kts 208°
2026-05-04 21:27 36.35295 23.06478 3666 ft 177 kts 208°
2026-05-04 21:28 36.34223 23.05810 3299 ft 163 kts 208°
2026-05-04 21:28 36.33264 23.05218 2953 ft 145 kts 208°
2026-05-04 21:28 36.32385 23.04685 2618 ft 136 kts 208°
2026-05-04 21:28 36.31542 23.04165 2272 ft 133 kts 211°
2026-05-04 21:29 36.30716 23.03650 1892 ft 133 kts 209°
2026-05-04 21:29 36.29892 23.03196 1622 ft 124 kts 208°
2026-05-04 21:29 36.29127 23.02744 1416 ft 120 kts 211°
2026-05-04 21:29 36.28392 23.02281 1206 ft 120 kts 212°
2026-05-04 21:30 36.27657 23.01838 1038 ft 109 kts 210°
2026-05-04 21:30 36.27298 23.01617 1033 ft 13 kts 201°
2026-05-04 21:30 36.27209 23.01568 1034 ft 14 kts 204°
2026-05-04 21:30 36.27123 23.01514 1035 ft 14 kts 203°
2026-05-04 21:31 36.26956 23.01410 1035 ft 13 kts 207°
2026-05-04 21:31 36.26865 23.01385 1034 ft 11 kts 182°
2026-05-04 21:31 36.26858 23.01351 1033 ft 2 kts
2026-05-04 21:32 36.26882 23.01366 1033 ft 6 kts 26°
2026-05-04 21:32 36.26923 23.01391 1033 ft 7 kts 26°
2026-05-04 21:32 36.26984 23.01428 1034 ft 13 kts 26°
2026-05-04 21:32 36.27059 23.01471 1037 ft 11 kts 25°
2026-05-04 21:33 36.27132 23.01516 1035 ft 16 kts 26°
2026-05-04 21:33 36.27220 23.01568 1034 ft 13 kts 25°
2026-05-04 21:33 36.27292 23.01612 1033 ft 10 kts 23°
2026-05-04 21:33 36.27350 23.01644 1034 ft 8 kts 26°
2026-05-04 21:34 36.27399 23.01646 1034 ft 7 kts 338°
2026-05-04 21:34 36.27437 23.01622 1031 ft 9 kts 336°
2026-05-04 21:34 36.27496 23.01577 1033 ft 4 kts 311°
2026-05-04 21:34 36.27517 23.01562 1032 ft 3 kts 346°
2026-05-04 21:35 36.27524 23.01562 1032 ft 0 kts 359°